Weather History for Truckee-Tahoe, CA

Change the Weather History Date:

Friday, February 1, 2013

  Actual Average Record
Temperature  
Mean Temperature 31 °F -  
Max Temperature 48 °F 41 °F 57 °F (1984)
Min Temperature 14 °F 13 °F -11 °F (1950)
Degree Days  
Heating Degree Days 34    
Moisture  
Dew Point 17 °F    
Average Humidity 75    
Maximum Humidity 100    
Minimum Humidity 30    
Precipitation  
Precipitation 0.00 in - - ()
Snow  
Snow 0.00 in - - ()
Snow Depth 10.00 in    
Sea Level Pressure  
Sea Level Pressure 30.33 in    
Wind  
Wind Speed 1 mph (ESE)    
Max Wind Speed 7 mph    
Max Gust Speed -    
Visibility 10 miles    
Events      
Averages and records for this station are not official NWS values.
T = Trace of Precipitation, MM = Missing Value Source: NWS Daily Summary

Daily Weather History Graph

Daily Weather History Graph

Search for Another Location

Airport:

Trip Planner

Search our weather history database for the weather conditions in past years. The results will help you decide how hot, cold, wet, or windy it might be!

Date:

Astronomy

Feb. 01, 2013 Rise Set
Actual Time 7:07 AM PST 5:21 PM PST
Civil Twilight 6:39 AM PST 5:49 PM PST
Nautical Twilight 6:06 AM PST 6:21 PM PST
Astronomical Twilight 5:35 AM PST 6:53 PM PST
Moon 11:31 PM PST (2/1) 9:46 AM PST (2/1)
Length of Visible Light 11h 10m
Length of Day
10h 14m
Waning Gibbous, 69% of the Moon is Illuminated
Feb 1
Waning Gibbous
Feb 3
Last Quarter
Feb 9
New
Feb 17
First Quarter
Feb 25
Full

Hourly Weather History & Observations

Time (PST) Temp. Windchill Dew Point Humidity Pressure Visibility Wind Dir Wind Speed Gust Speed Precip Events Conditions
12:15 AM 23.0 °F - 17.6 °F 80% 30.32 in 10.0 mi Calm Calm - N/A   Clear
12:35 AM 19.4 °F - 17.6 °F 93% 30.32 in 10.0 mi Calm Calm - N/A   Clear
12:55 AM 19.4 °F - 15.8 °F 86% 30.32 in 10.0 mi Calm Calm - N/A   Clear
1:15 AM 19.4 °F - 15.8 °F 86% 30.32 in 10.0 mi Calm Calm - N/A   Clear
1:35 AM 19.4 °F - 15.8 °F 86% 30.32 in 10.0 mi Calm Calm - N/A   Clear
1:55 AM 19.4 °F - 17.6 °F 93% 30.32 in 10.0 mi Calm Calm - N/A   Clear
2:15 AM 19.4 °F - 15.8 °F 86% 30.32 in 10.0 mi Calm Calm - N/A   Clear
2:35 AM 17.6 °F - 15.8 °F 93% 30.32 in 10.0 mi Calm Calm - N/A   Clear
2:55 AM 17.6 °F - 15.8 °F 93% 30.32 in 10.0 mi Calm Calm - N/A   Clear
3:15 AM 15.8 °F - 14.0 °F 93% 30.32 in 10.0 mi Calm Calm - N/A   Clear
3:35 AM 17.6 °F - 14.0 °F 86% 30.32 in 10.0 mi Calm Calm - N/A   Clear
3:55 AM 15.8 °F - 14.0 °F 93% 30.32 in 10.0 mi Calm Calm - N/A   Clear
4:15 AM 15.8 °F - 14.0 °F 93% 30.31 in 10.0 mi Calm Calm - N/A   Clear
4:35 AM 14.0 °F - 14.0 °F 100% 30.31 in 10.0 mi Calm Calm - N/A   Clear
4:55 AM 14.0 °F - 12.2 °F 93% 30.31 in 10.0 mi Calm Calm - N/A   Clear
5:15 AM 14.0 °F - 14.0 °F 100% 30.31 in 10.0 mi Calm Calm - N/A   Clear
5:35 AM 15.8 °F - 14.0 °F 93% 30.31 in 10.0 mi Calm Calm - N/A   Clear
6:50 AM 14.0 °F - 12.2 °F 93% 30.32 in 10.0 mi Calm Calm - N/A   Clear
7:45 AM 14.0 °F - 12.2 °F 93% 30.34 in 10.0 mi Calm Calm - N/A   Clear
8:50 AM 15.8 °F - 14.0 °F 93% 30.35 in 10.0 mi Calm Calm - N/A   Clear
9:45 AM 23.0 °F - 15.8 °F 74% 30.35 in 10.0 mi Calm Calm - N/A   Clear
10:55 AM 30.2 °F - 15.8 °F 55% 30.34 in 10.0 mi Calm Calm - N/A   Clear
11:45 AM 33.8 °F - 17.6 °F 52% 30.32 in 10.0 mi Calm Calm - N/A   Clear
12:45 PM 37.4 °F - 17.6 °F 45% 30.29 in 10.0 mi Calm Calm - N/A   Clear
1:45 PM 42.8 °F - 15.8 °F 34% 30.28 in 10.0 mi Calm Calm - N/A   Clear
2:55 PM 48.2 °F - 17.6 °F 30% 30.26 in 10.0 mi North 5.8 mph - N/A   Clear
3:45 PM 48.2 °F - 17.6 °F 30% 30.27 in 10.0 mi North 6.9 mph - N/A   Clear
4:55 PM 44.6 °F 41.4 °F 19.4 °F 37% 30.28 in 10.0 mi North 5.8 mph - N/A   Clear
5:15 PM 42.8 °F 40.1 °F 19.4 °F 39% 30.28 in 10.0 mi NNW 4.6 mph - N/A   Clear
5:35 PM 39.2 °F 37.0 °F 23.0 °F 52% 30.29 in 10.0 mi NNE 3.5 mph - N/A   Clear
5:55 PM 35.6 °F 32.8 °F 21.2 °F 56% 30.30 in 10.0 mi SSE 3.5 mph - N/A   Clear
6:15 PM 32.0 °F 28.7 °F 21.2 °F 64% 30.31 in 10.0 mi ESE 3.5 mph - N/A   Clear
6:35 PM 32.0 °F - 21.2 °F 64% 30.32 in 10.0 mi Calm Calm - N/A   Clear
6:55 PM 32.0 °F 27.5 °F 19.4 °F 60% 30.32 in 10.0 mi South 4.6 mph - N/A   Clear
7:15 PM 32.0 °F - 19.4 °F 60% 30.33 in 10.0 mi Calm Calm - N/A   Clear
7:35 PM 30.2 °F 26.7 °F 19.4 °F 64% 30.34 in 10.0 mi South 3.5 mph - N/A   Clear
7:55 PM 26.6 °F 22.6 °F 19.4 °F 74% 30.34 in 10.0 mi SE 3.5 mph - N/A   Clear
8:15 PM 26.6 °F 22.6 °F 19.4 °F 74% 30.34 in 10.0 mi SW 3.5 mph - N/A   Clear
8:35 PM 24.8 °F - 21.2 °F 86% 30.35 in 10.0 mi Calm Calm - N/A   Clear
8:55 PM 26.6 °F - 21.2 °F 80% 30.36 in 10.0 mi Calm Calm - N/A   Clear
9:15 PM 24.8 °F - 19.4 °F 80% 30.36 in 10.0 mi Calm Calm - N/A   Clear
9:35 PM 24.8 °F - 19.4 °F 80% 30.37 in 10.0 mi Calm Calm - N/A   Clear
9:55 PM 26.6 °F - 21.2 °F 80% 30.37 in 10.0 mi Calm Calm - N/A   Clear
10:15 PM 24.8 °F 20.5 °F 19.4 °F 80% 30.37 in 10.0 mi SW 3.5 mph - N/A   Clear
10:35 PM 24.8 °F - 21.2 °F 86% 30.37 in 10.0 mi Calm Calm - N/A   Clear
10:55 PM 24.8 °F - 19.4 °F 80% 30.37 in 10.0 mi Calm Calm - N/A   Clear
11:15 PM 24.8 °F - 19.4 °F 80% 30.37 in 10.0 mi Calm Calm - N/A   Clear
11:35 PM 24.8 °F - 19.4 °F 80% 30.37 in 10.0 mi Calm Calm - N/A   Clear
11:55 PM 24.8 °F - 19.4 °F 80% 30.37 in 10.0 mi Calm Calm - N/A   Clear